FW5697 Weather Reports


time (UTC)temp
C
wind
direction
speed
KPH
gust
KPH
rain 1hr
cm
rain 24hr
cm
rain mn
cm
humidity
%
barometer
mb
20260509111530 13 0 0.0 1.6 0.00 0.00 0.00 96 1012.0
20260509110028 13 0 0.0 0.0 0.00 0.00 0.00 96 1012.1
20260509104530 13 0 0.0 0.0 0.00 0.00 0.00 96 1012.1
20260509103027 13 0 0.0 0.0 0.00 0.00 0.00 96 1012.2
20260509101530 13 0 0.0 0.0 0.00 0.00 0.00 96 1012.4
20260509100029 13 0 0.0 0.0 0.00 0.00 0.00 96 1012.5
20260509094534 13 0 0.0 1.6 0.00 0.00 0.00 96 1012.3
20260509093029 13 0 0.0 0.0 0.00 0.00 0.00 96 1012.3
20260509091530 13 0 0.0 0.0 0.00 0.00 0.00 96 1012.1
20260509090036 13 0 0.0 0.0 0.00 0.00 0.00 95 1012.0
20260509084529 13 0 0.0 0.0 0.00 0.00 0.00 96 1011.8
20260509083030 13 0 0.0 0.0 0.00 0.00 0.00 96 1011.7
20260509081531 13 0 0.0 0.0 0.00 0.00 0.00 95 1011.8
20260509080029 13 0 0.0 0.0 0.00 0.00 0.00 96 1011.6
20260509074528 13 0 0.0 0.0 0.00 0.00 0.00 95 1011.4
20260509073035 13 0 0.0 0.0 0.00 0.00 0.00 95 1011.5
20260509071528 13 0 0.0 0.0 0.00 0.00 0.00 95 1011.9
20260509070028 14 0 0.0 0.0 0.00 0.00 0.00 95 1012.2
20260509064529 14 0 0.0 1.6 0.00 0.00 0.00 95 1012.2
20260509063036 14 0 0.0 0.0 0.00 0.00 0.00 95 1012.7
20260509061529 14 0 0.0 0.0 0.00 0.00 0.00 95 1012.8
20260509060029 14 0 0.0 0.0 0.00 0.00 0.00 94 1012.8
20260509054527 14 0 0.0 0.0 0.00 0.00 0.00 94 1012.8
20260509053047 15 0 0.0 1.6 0.00 0.00 0.00 94 1013.1
20260509051529 15 0 0.0 0.0 0.00 0.00 0.00 94 1013.2
20260509050028 15 0 0.0 0.0 0.00 0.00 0.00 94 1013.5
20260509044528 15 0 0.0 0.0 0.00 0.00 0.00 93 1013.6
20260509043040 15 0 0.0 0.0 0.00 0.00 0.00 93 1013.5
20260509041528 15 0 0.0 0.0 0.00 0.00 0.00 93 1013.6
20260509040034 15 0 0.0 0.0 0.00 0.00 0.00 93 1013.7
20260509034528 15 0 0.0 0.0 0.00 0.00 0.00 92 1013.6
20260509033027 15 0 0.0 0.0 0.00 0.00 0.00 92 1013.7
20260509031531 15 0 0.0 0.0 0.00 0.00 0.00 92 1013.9
20260509030028 15 0 0.0 0.0 0.00 0.00 0.00 91 1013.8
20260509024527 16 0 0.0 0.0 0.00 0.00 0.00 91 1013.9
20260509023028 16 0 0.0 0.0 0.00 0.00 0.00 90 1014.1
20260509021530 16 0 0.0 0.0 0.00 0.00 0.00 90 1014.1
20260509020026 16 0 0.0 0.0 0.00 0.00 0.00 89 1014.2
20260509014528 16 0 0.0 0.0 0.00 0.00 0.00 88 1014.2
20260509013031 16 0 0.0 0.0 0.00 0.00 0.00 88 1014.1
20260509011530 16 0 0.0 0.0 0.00 0.00 0.00 87 1014.2
20260509010034 16 0 0.0 0.0 0.00 0.00 0.00 86 1014.3
20260509004530 17 0 0.0 1.6 0.00 0.00 0.00 85 1014.3
20260509003034 17 0 0.0 0.0 0.00 0.00 0.00 84 1014.3
20260509001531 17 0 0.0 1.6 0.00 0.00 0.00 84 1014.3
20260509000030 17 0 0.0 0.0 0.00 0.00 0.00 81 1014.2
20260508234530 18 0 0.0 0.0 0.00 0.00 0.00 80 1014.2
20260508233034 18 0 0.0 3.2 0.00 0.00 0.00 79 1014.2
20260508231530 18 0 0.0 0.0 0.00 0.00 0.00 77 1013.9
20260508230028 18 0 0.0 0.0 0.00 0.00 0.00 77 1013.7
20260508224528 18 0 0.0 0.0 0.00 0.00 0.00 76 1013.7
20260508223032 19 0 0.0 0.0 0.00 0.00 0.00 74 1013.9
20260508221532 19 0 0.0 0.0 0.00 0.00 0.00 73 1013.9
20260508220027 19 0 0.0 0.0 0.00 0.00 0.00 72 1013.8
20260508214532 19 0 0.0 1.6 0.00 0.00 0.00 71 1013.8
20260508213028 20 0 0.0 1.6 0.00 0.00 0.00 70 1014.0
20260508211531 20 0 0.0 3.2 0.00 0.00 0.00 70 1014.2
20260508210034 20 0 0.0 0.0 0.00 0.00 0.00 69 1014.1
20260508204534 20 0 0.0 1.6 0.00 0.00 0.00 67 1014.0
20260508203034 20 0 0.0 1.6 0.00 0.00 0.00 66 1013.9
20260508201531 21 0 0.0 6.4 0.00 0.00 0.00 63 1014.3
20260508200033 21 0 0.0 4.8 0.00 0.00 0.00 64 1014.1
20260508194531 21 0 0.0 1.6 0.00 0.00 0.00 63 1014.1
20260508193030 21 0 0.0 1.6 0.00 0.00 0.00 64 1014.4
20260508191532 21 0 0.0 1.6 0.00 0.00 0.00 63 1014.8
20260508190029 21 0 0.0 3.2 0.00 0.00 0.00 61 1014.7
20260508184528 21 65 1.6 6.4 0.00 0.00 0.00 62 1015.0
20260508183030 21 178 0.0 6.4 0.00 0.00 0.00 63 1015.2
20260508181540 21 0 0.0 4.8 0.00 0.00 0.00 64 1015.5
20260508180028 21 0 0.0 8.0 0.00 0.00 0.00 64 1015.5
20260508174531 21 0 1.6 8.0 0.00 0.00 0.00 67 1015.7
20260508173029 20 0 0.0 3.2 0.00 0.00 0.00 64 1015.8
20260508171530 20 32 1.6 6.4 0.00 0.00 0.00 65 1016.1
20260508170028 20 0 0.0 3.2 0.00 0.00 0.00 67 1016.1
20260508164527 20 0 0.0 3.2 0.00 0.00 0.00 66 1016.4
20260508163029 20 75 0.0 4.8 0.00 0.00 0.00 66 1016.8
20260508161544 20 0 0.0 3.2 0.00 0.00 0.00 68 1017.2
20260508160028 20 0 0.0 3.2 0.00 0.00 0.00 69 1017.1
20260508154529 19 201 0.0 4.8 0.00 0.61 0.00 72 1017.3
20260508153049 18 82 0.0 3.2 0.00 0.61 0.00 74 1017.5
20260508151527 18 0 0.0 3.2 0.00 0.61 0.00 76 1017.4
20260508150028 17 79 0.0 4.8 0.00 0.61 0.00 77 1017.5
20260508144527 17 148 0.0 4.8 0.00 0.71 0.00 78 1017.5
20260508143045 17 0 0.0 4.8 0.00 0.71 0.00 79 1017.8
20260508141530 16 0 0.0 3.2 0.00 0.71 0.00 79 1017.6
20260508140030 16 0 0.0 6.4 0.00 0.71 0.00 81 1017.7
20260508134534 15 23 1.6 6.4 0.00 2.18 0.00 81 1017.9
20260508133029 15 32 1.6 6.4 0.00 2.18 0.00 83 1017.8
20260508131529 15 0 0.0 3.2 0.00 2.18 0.00 86 1017.7
20260508130027 14 0 0.0 3.2 0.00 2.18 0.00 87 1017.5
20260508124529 14 0 0.0 3.2 0.00 5.21 0.00 89 1017.5
20260508123028 13 0 0.0 4.8 0.00 5.21 0.00 89 1017.5
20260508121527 13 39 1.6 4.8 0.00 5.21 0.00 90 1017.2
20260508120028 12 0 0.0 0.0 0.00 5.21 0.00 93 1017.2
20260508114528 12 0 0.0 0.0 0.00 7.44 0.00 93 1016.7
20260508113028 12 0 0.0 0.0 0.00 7.44 0.00 94 1016.2